Regional Weather Roundup
Issued by NWS Cleveland, OH

Home | Current Version | Previous Version | Graphics & Text | Print | Product List | Glossary On
Versions: 1 2 3 4 5 6 7 8 9 10 11 12 13 14 15 16 17 18 19 20 21 22 23 24 25 26 27 28 29 30 31 32 33 34 35 36 37 38 39 40 41 42 43 44 45 46 47 48 49 50
000
ASUS41 KCLE 240210
RWRCLE
OHIO REGIONAL WEATHER ROUNDUP
NATIONAL WEATHER SERVICE WILMINGTON, OH
1000 PM EDT WED JUL 23 2014

NOTE: "FAIR" INDICATES FEW OR NO CLOUDS BELOW 12,000 FEET WITH NO
SIGNIFICANT WEATHER AND/OR OBSTRUCTIONS TO VISIBILITY.

OHZ001>008-015>018-024>027-034-035-043-044-240300-
   NORTHWEST OHIO

CITY           SKY/WX    TMP DP  RH WIND       PRES   REMARKS
DEFIANCE       MOCLDY    67  58  72 E3        30.07R
FINDLAY        CLEAR     65  59  81 E9        30.05R
TOLEDO EXPRESS PTCLDY    62  58  86 CALM      30.06S
TOLEDO METCALF CLEAR     65  57  75 E3        30.07R
LIMA           PTCLDY    65  61  87 NE6       30.07R
$$

OHZ009>014-019>023-028>033-038-089-240300-
   NORTHEAST OHIO

CITY           SKY/WX    TMP DP  RH WIND       PRES   REMARKS
CLE-HOPKINS    MOCLDY    65  55  70 N12       30.07S
CLE-LAKEFRONT  CLOUDY    67  57  70 N14       30.04R
CUY CO. ARPT   MOCLDY    66  59  77 N9        30.06R
LORAIN-ELYRIA  PTCLDY    66  55  67 N9        30.07R
ASHTABULA      CLOUDY    66  57  72 N3        30.04R
AKRON-CANTON   CLOUDY    64  56  75 N9        30.05R
WOOSTER        CLOUDY    64  55  72 N13G18    30.05S
MANSFIELD      CLEAR     59  56  89 N8        30.07R
YOUNGSTOWN     CLOUDY    64  59  83 NW12      30.03R
$$

OHZ042-051>053-060>062-070>072-077>081-240300-
  SOUTHWEST OHIO

CITY           SKY/WX    TMP DP  RH WIND       PRES   REMARKS
CINC-COVINGTON LGT RAIN  72  68  87 N16       30.00R
CINC-LUNKEN    MOCLDY    74  68  81 N13       29.99R
HAMILTON       CLOUDY    71  67  87 N9        30.02R
DAYTON         MOCLDY    68  65  90 NE10      30.04R
WRIGHT-PAT AFB CLOUDY    68  65  91 N7        30.03R
DAYTON GENERAL CLOUDY    69  65  86 N13       30.02R
WILMINGTON     CLOUDY    68  65  90 N13       30.01R
$$

OHZ036-037-039>041-045>050-054>059-063>069-073>076-082>088-240300-
  CENTRAL AND SOUTHEAST OHIO

CITY           SKY/WX    TMP DP  RH WIND       PRES   REMARKS
COLUMBUS       CLOUDY    69  61  75 N12       30.02R
OSU AIRPORT    CLOUDY    67  61  81 NE14      30.03R
BOLTON FIELD   CLOUDY    67  64  90 N12       30.03R
RICKENBACK AFB RAIN      67  62  83 N13       29.98F
NEWARK         MOCLDY    67  61  81 N7        30.02R
MARION         CLEAR     62  58  86 NE9       30.06R
LANCASTER      CLOUDY    69  62  78 N15       30.02R
ZANESVILLE     CLOUDY    67  60  78 N13       30.01S
NEW PHILLY     CLOUDY    66  58  75 N9        30.04R
$$


USA.gov is the U.S. government's official web portal to all federal, state and local government web resources and services.